Погода в Прохладном

Россия / Краснодарский край     44°42′52″N   40°41′56″E
темп.,
°C
ветер,
м/с
пор.,
м/с
влажн.,
%
обл.,
%
осадки,
мм/ч
давл.,
гПа
погр.,
м
21 апреля, ср
ср2100:00+12зюз81550100 0.1 1013558
03:00+10з4880100 0.6 1014274
06:00+9сз2589100 0.4 1017301
09:00+11зсз348497 0.6 1019683
12:00+13з2273100 0.1 1019851
15:00+13ю227496 0.3 1019662
18:00+12ююв348533 0.1 1020240
21:00+9юв34915 0.1 102163
22 апреля, чт
чт2200:00+9юв3489100 0.0 102173
03:00+8ююв1191100 0.0 102119
06:00+8з2294100 0.0 102262
09:00+12сз118276 0.0 1022571
12:00+14в3374100 0.1 1021797
15:00+15вюв2270100 0.2 1021924
18:00+13всв1283100 1.4 102144
21:00+11всв1196100 6.3 102319
23 апреля, пт
пт2300:00+9юз229517 0.1 102316
03:00+7зюз23955 0.1 102344
06:00+7зюз24961 0.0 102490
09:00+12зюз22790 0.0 1024506
12:00+16сз23590 0.0 10221440
15:00+17ссз335234 0.0 10211689
18:00+15св226993 0.0 102042
21:00+11в3472100 0.0 101957
24 апреля, сб
сб2400:00+11вюв3469100 0.0 101855
03:00+11зюз2271100 0.0 101735
06:00+10зюз2588100 0.0 1019168
09:00+13зюз237486 0.0 1019502
12:00+17зсз695577 0.0 10181769
15:00+18зсз8125758 0.0 10171573
18:00+14зсз5106928 0.0 1018607
21:00+11з2482100 0.0 1021125
25 апреля, вс
вс2500:00+9сз2294100 0.0 102155
03:00+8сз1291100 0.0 102115
06:00+8ссз2286100 0.3 1020153
09:00+7ссв1281100 2.0 1020326
12:00+6ссв1291100 5.8 1020302
15:00+6св2294100 12.4 1020325
18:00+6с3597100 6.1 1019370
21:00+6с3598100 9.9 1020279